Westfield, IN

6:37 PM EDT on September 24, 2016 (GMT -0400)
Indianapolis Terry

Weather History for KTYQ - August, 2013

Change the Weather History Date:

Friday, August 30, 2013

  Actual Average (KEYE) Record (KEYE)
Temperature  
Mean Temperature 76 °F 73 °F  
Max Temperature 91 °F 83 °F 92 °F (2013)
Min Temperature 61 °F 63 °F 54 °F (2011)
Degree Days  
Heating Degree Days 0 0  
Month to date heating degree days 0  
Since 1 June heating degree days 15  
Since 1 July heating degree days 1  
Cooling Degree Days 11 8  
Month to date cooling degree days 278  
Year to date cooling degree days 914  
Since 1 June cooling degree days 830  
Growing Degree Days 26 (Base 50)    
Moisture  
Dew Point 65 °F    
Average Humidity 68    
Maximum Humidity 89    
Minimum Humidity 43    
Precipitation  
Precipitation 0.43 in 0.11 in 1.59 in (2005)
Month to date precipitation 3.07  
Year to date precipitation 28.53  
Sea Level Pressure  
Sea Level Pressure 29.95 in    
Wind  
Wind Speed 2 mph (SW)    
Max Wind Speed 10 mph    
Max Gust Speed 30 mph    
Visibility 8 miles    
Events Rain , Thunderstorm    
T = Trace of Precipitation, MM = Missing Value Source: NWS Daily Summary

Daily Weather History Graph

Daily Weather History Graph

Search for Another Location

Airport or City:

Trip Planner

Search our weather history database for the weather conditions in past years. The results will help you decide how hot, cold, wet, or windy it might be!

Date:

Astronomy

Aug. 30, 2013 Rise Set
Actual Time 7:11 AM EDT 8:19 PM EDT
Civil Twilight 6:43 AM EDT 8:47 PM EDT
Nautical Twilight 6:09 AM EDT 9:20 PM EDT
Astronomical Twilight 5:34 AM EDT 9:54 PM EDT
Moon 1:49 AM EDT (8/30) 4:34 PM EDT (8/30)
Length of Visible Light 14h 03m
Length of Day
13h 08m
Waning Crescent, 29% of the Moon is Illuminated
Aug 30
Waning Crescent
Sep 5
New
Sep 12
First Quarter
Sep 19
Full
Sep 26
Last Quarter

Hourly Weather History & Observations

Time (EDT) Temp. Heat Index Dew Point Humidity Pressure Visibility Wind Dir Wind Speed Gust Speed Precip Events Conditions
12:15 AM 66.6 °F - 62.6 °F 87% 30.03 in 7.0 mi Calm Calm - N/A   Clear
12:35 AM 66.2 °F - 62.1 °F 86% 30.03 in 7.0 mi Calm Calm - N/A   Clear
12:55 AM 66.2 °F - 61.9 °F 86% 30.03 in 7.0 mi Calm Calm - N/A   Clear
1:15 AM 65.7 °F - 61.7 °F 87% 30.02 in 5.0 mi Calm Calm - N/A   Clear
1:35 AM 65.5 °F - 61.5 °F 87% 30.03 in 7.0 mi Calm Calm - N/A   Clear
1:55 AM 65.5 °F - 61.5 °F 87% 30.02 in 5.0 mi Calm Calm - N/A   Clear
2:15 AM 65.3 °F - 61.3 °F 87% 30.03 in 5.0 mi Calm Calm - N/A   Clear
2:35 AM 64.6 °F - 60.8 °F 88% 30.03 in 5.0 mi Calm Calm - N/A   Clear
2:55 AM 64.4 °F - 60.4 °F 87% 30.02 in 5.0 mi Calm Calm - N/A   Clear
3:15 AM 63.9 °F - 60.3 °F 88% 30.02 in 5.0 mi Calm Calm - N/A   Clear
3:35 AM 63.7 °F - 59.9 °F 87% 30.01 in 5.0 mi Calm Calm - N/A   Clear
3:55 AM 63.3 °F - 59.5 °F 87% 30.01 in 7.0 mi Calm Calm - N/A   Clear
4:15 AM 63.0 °F - 59.2 °F 87% 30.01 in 7.0 mi Calm Calm - N/A   Clear
4:35 AM 62.8 °F - 59.2 °F 88% 30.01 in 7.0 mi Calm Calm - N/A   Clear
4:55 AM 62.6 °F - 59.0 °F 88% 30.01 in 7.0 mi Calm Calm - N/A   Clear
5:15 AM 62.6 °F - 59.0 °F 88% 30.01 in 7.0 mi Calm Calm - N/A   Clear
5:35 AM 62.6 °F - 58.8 °F 87% 30.00 in 7.0 mi Calm Calm - N/A   Clear
5:55 AM 62.2 °F - 58.6 °F 88% 30.00 in 4.0 mi Calm Calm - N/A   Clear
6:15 AM 62.2 °F - 58.6 °F 88% 30.00 in 3.0 mi Calm Calm - N/A   Clear
6:35 AM 61.9 °F - 58.3 °F 88% 30.00 in 5.0 mi Calm Calm - N/A   Clear
6:55 AM 62.2 °F - 59.0 °F 89% 30.00 in 3.0 mi Calm Calm - N/A   Clear
7:15 AM 61.9 °F - 58.5 °F 89% 30.01 in 4.0 mi Calm Calm - N/A   Clear
7:35 AM 62.1 °F - 58.6 °F 89% 30.01 in 4.0 mi Calm Calm - N/A   Clear
7:55 AM 63.5 °F - 60.1 °F 89% 30.01 in 3.0 mi Calm Calm - N/A   Mist
8:15 AM 65.7 °F - 62.2 °F 89% 30.00 in 3.0 mi Calm Calm - N/A   Mist
8:35 AM 68.7 °F - 65.3 °F 89% 30.00 in 2.5 mi Calm Calm - N/A   Clear
8:55 AM 71.1 °F - 67.3 °F 88% 30.00 in 3.0 mi Calm Calm - N/A   Clear
10:15 AM 79.5 °F - 68.0 °F 68% 29.99 in 10.0 mi SW 4.6 mph - N/A   Clear
10:35 AM 80.8 °F 83.5 °F 68.0 °F 65% 29.99 in 10.0 mi SW 5.8 mph - N/A   Clear
10:55 AM 81.9 °F 84.8 °F 68.4 °F 63% 29.99 in 7.0 mi SSW 6.9 mph - N/A   Clear
11:15 AM 82.8 °F 85.5 °F 67.8 °F 60% 29.99 in 10.0 mi SW 5.8 mph - N/A   Scattered Clouds
11:35 AM 84.0 °F 86.5 °F 66.9 °F 56% 29.99 in 10.0 mi SW 4.6 mph - N/A   Scattered Clouds
11:55 AM 84.4 °F 86.8 °F 66.4 °F 55% 29.98 in 10.0 mi SW 8.1 mph - N/A   Clear
12:15 PM 85.8 °F 87.6 °F 65.3 °F 50% 29.97 in 10.0 mi SSW 8.1 mph - N/A   Scattered Clouds
12:35 PM 86.0 °F 87.9 °F 65.7 °F 50% 29.96 in 10.0 mi South 8.1 mph - N/A   Scattered Clouds
12:55 PM 86.9 °F 88.9 °F 65.7 °F 49% 29.96 in 10.0 mi SW 9.2 mph - N/A   Scattered Clouds
1:15 PM 87.1 °F 88.9 °F 64.9 °F 48% 29.96 in 10.0 mi SW 4.6 mph - N/A   Scattered Clouds
1:35 PM 87.4 °F 89.5 °F 65.3 °F 48% 29.95 in 10.0 mi SW 10.4 mph - N/A   Clear
1:55 PM 87.6 °F 89.4 °F 65.3 °F 47% 29.95 in 10.0 mi SSW 5.8 mph - N/A   Clear
2:15 PM 88.7 °F 89.8 °F 63.7 °F 43% 29.95 in 10.0 mi SW 3.5 mph - N/A   Clear
2:35 PM 89.6 °F 91.8 °F 65.5 °F 45% 29.94 in 10.0 mi WSW 6.9 mph - N/A   Clear
2:55 PM 89.6 °F 91.8 °F 65.8 °F 45% 29.94 in 10.0 mi WSW 6.9 mph - N/A   Clear
3:15 PM 89.8 °F 92.1 °F 65.7 °F 45% 29.93 in 10.0 mi SW 8.1 mph - N/A   Clear
3:35 PM 90.5 °F 92.5 °F 65.5 °F 43% 29.92 in 10.0 mi WSW 5.8 mph - N/A   Clear
3:55 PM 90.5 °F 92.9 °F 66.0 °F 44% 29.92 in 10.0 mi SSW 4.6 mph - N/A   Clear
4:15 PM 90.9 °F 93.5 °F 66.4 °F 44% 29.91 in 10.0 mi SW 6.9 mph - N/A   Scattered Clouds
4:35 PM 90.7 °F 93.6 °F 66.6 °F 45% 29.90 in 10.0 mi WNW 3.5 mph - N/A   Scattered Clouds
4:55 PM 91.0 °F 93.8 °F 66.2 °F 44% 29.90 in 10.0 mi WNW 3.5 mph - N/A   Scattered Clouds
5:15 PM 91.0 °F 94.3 °F 66.7 °F 45% 29.89 in 10.0 mi West 3.5 mph - N/A   Scattered Clouds
5:35 PM 91.4 °F 94.5 °F 66.7 °F 44% 29.89 in 10.0 mi West 5.8 mph - N/A   Scattered Clouds
5:55 PM 90.9 °F 94.4 °F 67.5 °F 46% 29.88 in 10.0 mi SW 6.9 mph - N/A   Scattered Clouds
6:15 PM 90.1 °F 93.5 °F 67.6 °F 47% 29.88 in 10.0 mi WSW 6.9 mph - N/A   Clear
6:35 PM 89.8 °F 93.8 °F 68.2 °F 49% 29.87 in 10.0 mi SSW 8.1 mph - N/A   Clear
6:55 PM 88.2 °F 92.1 °F 68.4 °F 52% 29.86 in 10.0 mi SW 5.8 mph - N/A   Clear
7:15 PM 86.5 °F 90.7 °F 69.3 °F 56% 29.86 in 10.0 mi SW 3.5 mph - N/A   Clear
7:35 PM 86.9 °F 91.0 °F 69.1 °F 55% 29.86 in 10.0 mi WSW 4.6 mph - N/A   Clear
7:55 PM 86.0 °F 90.4 °F 69.6 °F 58% 29.86 in 10.0 mi SW 4.6 mph - N/A   Clear
8:15 PM 85.1 °F 89.4 °F 69.8 °F 60% 29.87 in 10.0 mi WSW 3.5 mph - N/A   Scattered Clouds
8:35 PM 83.5 °F 87.7 °F 70.3 °F 64% 29.87 in 10.0 mi SW 4.6 mph - N/A   Clear
8:55 PM 83.7 °F 87.7 °F 70.0 °F 63% 29.87 in 10.0 mi SW 4.6 mph - N/A   Clear
9:15 PM 83.1 °F 87.1 °F 70.0 °F 64% 29.87 in 10.0 mi SSW 4.6 mph - N/A   Scattered Clouds
9:35 PM 83.1 °F 87.1 °F 69.8 °F 64% 29.87 in 10.0 mi SSW 4.6 mph - N/A   Scattered Clouds
9:55 PM 82.9 °F 86.7 °F 69.8 °F 64% 29.88 in 10.0 mi WSW 3.5 mph - N/A   Mostly Cloudy
10:15 PM 81.0 °F 85.2 °F 72.0 °F 74% 29.88 in 7.0 mi NW 8.1 mph - N/A Rain , Thunderstorm Rain
10:35 PM 76.3 °F - 64.9 °F 68% 29.86 in 1.5 mi SSW 4.6 mph 29.9 mph 0.43 in Rain , Thunderstorm Thunderstorms and Rain
10:55 PM 76.1 °F - 67.3 °F 74% 29.86 in 10.0 mi SW 3.5 mph - 0.43 in Thunderstorm Thunderstorm
11:15 PM 77.0 °F - 70.7 °F 81% 29.86 in 10.0 mi South 4.6 mph - N/A Rain , Thunderstorm Thunderstorms and Rain
11:35 PM 76.6 °F - 71.2 °F 83% 29.86 in 10.0 mi SW 5.8 mph - N/A Thunderstorm Mostly Cloudy
11:55 PM 78.3 °F - 70.0 °F 76% 29.88 in 10.0 mi North 8.1 mph 20.7 mph N/A Thunderstorm Thunderstorm